Home > Weather > Kreuzlingen > Past weeks

Flag for Switzerland Weather for the Past 2 Weeks in Kreuzlingen, Thurgau, Switzerland

Now
66 °F

Sunny.


Feels Like: 66 °F
Forecast: 37 / 70 °F
Wind: 14 mph from Northeast

Location: Friedrichshafen Airport

Current Time: May 5, 2016 at 6:49:00 PM

Latest Report: May 5, 2016 at 5:50 PM


Visibility: 10 mi

Pressure: 30.07 "Hg

Humidity: 40%

Dew Point: 41 °F

Location of KreuzlingenLocation

Historic Weather in Kreuzlingen — Graph

°F

Kreuzlingen Temperature Yesterday

Maximum temperature yesterday: 59 °F (at 4:20 PM)
Minimum temperature yesterday: 37 °F (at 5:03 AM)
Average temperature yesterday: 49 °F

High & Low Weather Summary for the Past Weeks

 TemperatureHumidityPressure
High70 °F (Apr 22, 2:50 PM)100% (Apr 22, 3:50 AM)30.33 "Hg (Apr 22, 3:50 AM)
Low28 °F (Apr 28, 5:50 AM)28% (Apr 30, 4:50 PM)29.65 "Hg (Apr 26, 8:20 AM)
Average47 °F73%30.01 "Hg
* Reported Apr 20 5:20 PM — May 5 5:20 PM, Kreuzlingen, Weather by CustomWeather, © 2016

Note: Actual official high and low records may vary slightly from our data, if they occured in-between our weather recording intervals... More about our weather records

Advertising

Kreuzlingen Weather History for the Previous 24 Hours

Scroll right to see more
 ConditionsComfort  
Time TempWeatherWind HumidityBarometerVisibility
5:20 PM
Thu, May 5
66 °FSunny.12 mph37%30.07 "Hg10 mi
4:50 PM66 °FSunny.13 mph37%30.07 "Hg10 mi
4:20 PM66 °FSunny.14 mph35%30.07 "Hg10 mi
3:50 PM64 °FSunny.14 mph34%30.09 "Hg10 mi
3:20 PM64 °FSunny.13 mph37%30.09 "Hg10 mi
2:50 PM63 °FSunny.14 mph37%30.09 "Hg10 mi
2:20 PM63 °FSunny.15 mph42%30.12 "Hg10 mi
1:50 PM63 °FSunny.15 mph39%30.12 "Hg10 mi
1:20 PM61 °FSunny.17 mph42%30.12 "Hg10 mi
12:50 PM59 °FSunny.16 mph45%30.12 "Hg10 mi
12:20 PM59 °FSunny.16 mph48%30.15 "Hg10 mi
11:50 AM57 °FSunny.14 mph48%30.15 "Hg10 mi
11:20 AM57 °FSunny.16 mph44%30.15 "Hg10 mi
10:50 AM55 °FSunny.15 mph47%30.15 "Hg10 mi
10:20 AM54 °FSunny.13 mph51%30.18 "Hg10 mi
9:50 AM54 °FSunny.12 mph54%30.18 "Hg10 mi
9:20 AM52 °FSunny.10 mph54%30.18 "Hg10 mi
8:50 AM50 °FSunny.9 mph58%30.18 "Hg10 mi
8:20 AM46 °FCool.10 mph66%30.21 "HgN/A
7:50 AM45 °FQuite cool.8 mph66%30.21 "HgN/A
7:20 AM41 °FQuite cool.9 mph70%30.21 "HgN/A
6:50 AM39 °FChilly.7 mph75%30.21 "HgN/A
6:20 AM37 °FClear.6 mph75%30.21 "Hg10 mi
5:50 AM37 °FClear.3 mph75%30.24 "Hg10 mi
5:20 AM37 °FChilly.5 mph75%30.24 "HgN/A
4:50 AM37 °FChilly.6 mph75%30.24 "HgN/A
4:20 AM37 °FChilly.3 mph75%30.24 "HgN/A
3:50 AM39 °FChilly.5 mph70%30.24 "HgN/A
3:20 AM41 °FQuite cool.5 mph66%30.24 "HgN/A
2:50 AM41 °FQuite cool.6 mph66%30.24 "HgN/A
2:20 AM41 °FQuite cool.5 mph66%30.24 "HgN/A
1:50 AM43 °FQuite cool.5 mph61%30.24 "HgN/A
1:20 AM45 °FQuite cool.5 mph57%30.24 "HgN/A
12:50 AM45 °FQuite cool.5 mph61%30.27 "HgN/A
12:20 AM46 °FCool.5 mph57%30.27 "HgN/A
11:50 PM
Wed, May 4
46 °FPassing clouds.6 mph62%30.27 "HgN/A
11:20 PM48 °FPassing clouds.5 mph58%30.27 "HgN/A
10:50 PM48 °FPassing clouds.5 mph58%30.27 "HgN/A
10:20 PM48 °FClear.3 mph54%30.27 "Hg10 mi
9:50 PM48 °FClear.3 mph54%30.27 "Hg10 mi
9:20 PM50 °FSunny.5 mph50%30.27 "Hg10 mi
8:50 PM52 °FSunny.6 mph50%30.27 "Hg10 mi
8:20 PM52 °FSunny.3 mph50%30.24 "Hg10 mi
7:50 PM52 °FSunny.6 mph54%30.24 "Hg10 mi
7:20 PM54 °FSunny.2 mph47%30.24 "Hg10 mi
6:50 PM54 °FSunny.6 mph51%30.24 "Hg10 mi
6:20 PM55 °FPassing clouds.8 mph44%30.27 "HgN/A
Weather by CustomWeather, © 2016

See weather overviewHow to use our weather pages